• In Uzbekistan
  • List of Countries
  • For 7 days
  • Water Temperature
  • Satellite Maps
  • Weather Map
  • Weather Widgets
  • user-avatar
    Login

    Hourly Weather Hoszowczyk

    Today, 21 September, Friday

    Time Temperature Precipitation Wind Pressure Humidity
    00:00 +15°C° 0 mm 1 mps 718 mmHg 78%
    01:00 +15°C° 0 mm 1 mps 718 mmHg 79%
    02:00 +14°C° 0 mm 1 mps 718 mmHg 80%
    03:00 +14°C° 0 mm 1 mps 718 mmHg 80%
    04:00 +14°C° 0 mm 1 mps 718 mmHg 81%
    05:00 +14°C° 0 mm 1 mps 717 mmHg 82%
    06:00 +15°C° 0 mm 1 mps 718 mmHg 79%
    07:00 +16°C° 0 mm 1 mps 718 mmHg 76%
    08:00 +18°C° 0 mm 1 mps 718 mmHg 71%
    09:00 +20°C° 0 mm 1 mps 718 mmHg 63%
    10:00 +21°C° 0 mm 2 mps 718 mmHg 55%
    11:00 +24°C° 0 mm 2 mps 718 mmHg 47%
    12:00 +24°C° 0 mm 2 mps 718 mmHg 45%
    13:00 +25°C° 0 mm 3 mps 718 mmHg 44%
    14:00 +26°C° 0 mm 3 mps 717 mmHg 43%
    15:00 +25°C° 0 mm 3 mps 717 mmHg 47%
    16:00 +24°C° 0 mm 3 mps 716 mmHg 52%
    17:00 +24°C° 0 mm 2 mps 716 mmHg 56%
    18:00 +21°C° 0 mm 2 mps 716 mmHg 61%
    19:00 +19°C° 0 mm 2 mps 715 mmHg 66%
    20:00 +17°C° 0 mm 2 mps 715 mmHg 72%
    21:00 +17°C° 0 mm 3 mps 715 mmHg 72%
    22:00 +16°C° 0 mm 3 mps 715 mmHg 72%
    23:00 +16°C° 0 mm 3 mps 715 mmHg 72%

    Tomorrow, 22 September, Saturday

    Time Temperature Precipitation Wind Pressure Humidity
    00:00 +16°C° 0 mm 3 mps 715 mmHg 70%
    01:00 +16°C° 0 mm 3 mps 715 mmHg 67%
    02:00 +15°C° 0 mm 4 mps 715 mmHg 65%
    03:00 +17°C° 0 mm 4 mps 715 mmHg 63%
    04:00 +17°C° 0 mm 4 mps 715 mmHg 60%
    05:00 +17°C° 0 mm 4 mps 715 mmHg 58%
    06:00 +15°C° 0.2 mm 4 mps 715 mmHg 66%
    07:00 +14°C° 0.2 mm 4 mps 716 mmHg 73%
    08:00 +14°C° 0.2 mm 3 mps 716 mmHg 81%
    09:00 +13°C° 0.5 mm 3 mps 717 mmHg 84%
    10:00 +13°C° 0.5 mm 3 mps 717 mmHg 87%
    11:00 +13°C° 0.5 mm 2 mps 718 mmHg 90%
    12:00 +12°C° 0.9 mm 2 mps 718 mmHg 90%
    13:00 +12°C° 0.9 mm 2 mps 718 mmHg 91%
    14:00 +12°C° 0.9 mm 1 mps 718 mmHg 91%
    15:00 +11°C° 0.6 mm 1 mps 718 mmHg 91%
    16:00 +11°C° 0.6 mm 1 mps 718 mmHg 90%
    17:00 +11°C° 0.6 mm 1 mps 718 mmHg 90%
    18:00 +10°C° 0 mm 1 mps 718 mmHg 91%
    19:00 +10°C° 0 mm 1 mps 718 mmHg 92%
    20:00 +9°C° 0 mm 1 mps 718 mmHg 94%
    21:00 +8°C° 0 mm 2 mps 718 mmHg 92%
    22:00 +8°C° 0 mm 2 mps 718 mmHg 90%
    23:00 +7°C° 0 mm 2 mps 718 mmHg 88%

    Day after tomorrow, 23 September, Sunday

    Time Temperature Precipitation Wind Pressure Humidity
    00:00 +7°C° 0 mm 2 mps 718 mmHg 88%
    01:00 +8°C° 0 mm 2 mps 718 mmHg 88%
    02:00 +8°C° 0 mm 2 mps 718 mmHg 88%
    03:00 +7°C° 0 mm 2 mps 718 mmHg 88%
    04:00 +7°C° 0 mm 2 mps 718 mmHg 89%
    05:00 +7°C° 0 mm 2 mps 718 mmHg 89%
    06:00 +8°C° 0 mm 2 mps 718 mmHg 88%
    07:00 +8°C° 0 mm 2 mps 718 mmHg 87%
    08:00 +9°C° 0 mm 2 mps 718 mmHg 85%
    09:00 +10°C° 0 mm 3 mps 718 mmHg 80%
    10:00 +11°C° 0 mm 3 mps 718 mmHg 75%
    11:00 +12°C° 0 mm 4 mps 718 mmHg 70%
    12:00 +13°C° 0 mm 4 mps 718 mmHg 69%
    13:00 +13°C° 0 mm 4 mps 718 mmHg 68%
    14:00 +13°C° 0 mm 4 mps 717 mmHg 67%
    15:00 +13°C° 0 mm 4 mps 717 mmHg 68%
    16:00 +13°C° 0 mm 3 mps 717 mmHg 68%
    17:00 +13°C° 0 mm 3 mps 717 mmHg 69%
    18:00 +13°C° 0 mm 3 mps 716 mmHg 72%
    19:00 +12°C° 0 mm 3 mps 716 mmHg 75%
    20:00 +11°C° 0 mm 4 mps 715 mmHg 78%
    21:00 +11°C° 0 mm 4 mps 714 mmHg 74%
    22:00 +10°C° 0 mm 5 mps 714 mmHg 70%
    23:00 +11°C° 0 mm 6 mps 713 mmHg 65%

    24 September, Monday

    Time Temperature Precipitation Wind Pressure Humidity
    00:00 +11°C° 0.2 mm 6 mps 711 mmHg 67%
    01:00 +11°C° 0.2 mm 7 mps 710 mmHg 69%
    02:00 +11°C° 0.2 mm 8 mps 708 mmHg 71%
    03:00 +12°C° 0.5 mm 9 mps 707 mmHg 73%
    04:00 +12°C° 0.5 mm 9 mps 706 mmHg 74%
    05:00 +12°C° 0.5 mm 10 mps 705 mmHg 76%
    06:00 +12°C° 1 mm 10 mps 706 mmHg 79%
    07:00 +11°C° 1 mm 9 mps 706 mmHg 82%
    08:00 +11°C° 1 mm 9 mps 706 mmHg 85%
    09:00 +8°C° 0.4 mm 9 mps 708 mmHg 85%
    10:00 +7°C° 0.4 mm 8 mps 710 mmHg 84%
    11:00 +6°C° 0.4 mm 7 mps 712 mmHg 83%
    12:00 +6°C° 0.2 mm 7 mps 713 mmHg 82%
    13:00 +7°C° 0.2 mm 8 mps 714 mmHg 80%
    14:00 +7°C° 0.2 mm 8 mps 715 mmHg 78%
    15:00 +8°C° 0.1 mm 7 mps 715 mmHg 74%
    16:00 +8°C° 0.1 mm 7 mps 716 mmHg 70%
    17:00 +8°C° 0.1 mm 6 mps 716 mmHg 65%
    18:00 +7°C° 0 mm 6 mps 717 mmHg 67%
    19:00 +6°C° 0 mm 5 mps 717 mmHg 68%
    20:00 +5°C° 0 mm 5 mps 718 mmHg 70%
    21:00 +5°C° 0 mm 5 mps 718 mmHg 71%
    22:00 +3°C° 0 mm 5 mps 719 mmHg 72%
    23:00 +3°C° 0 mm 5 mps 719 mmHg 73%

    25 September, Tuesday

    Time Temperature Precipitation Wind Pressure Humidity
    00:00 +3°C° 0 mm 5 mps 720 mmHg 75%
    01:00 +4°C° 0 mm 4 mps 720 mmHg 76%
    02:00 +4°C° 0 mm 4 mps 720 mmHg 78%
    03:00 +3°C° 0 mm 4 mps 721 mmHg 80%
    04:00 +1°C° 0 mm 4 mps 721 mmHg 82%
    05:00 +2°C° 0 mm 3 mps 721 mmHg 84%
    06:00 +1°C° 0 mm 4 mps 722 mmHg 81%
    07:00 +3°C° 0 mm 4 mps 722 mmHg 78%
    08:00 +3°C° 0 mm 5 mps 723 mmHg 76%
    09:00 +5°C° 0 mm 5 mps 723 mmHg 70%
    10:00 +5°C° 0 mm 6 mps 724 mmHg 64%
    11:00 +8°C° 0 mm 6 mps 724 mmHg 58%
    12:00 +8°C° 0.1 mm 6 mps 724 mmHg 56%
    13:00 +8°C° 0.1 mm 6 mps 724 mmHg 53%
    14:00 +9°C° 0.1 mm 6 mps 724 mmHg 50%
    15:00 +9°C° 0 mm 5 mps 724 mmHg 50%
    16:00 +8°C° 0 mm 4 mps 724 mmHg 51%
    17:00 +8°C° 0 mm 4 mps 724 mmHg 52%
    18:00 +7°C° 0 mm 3 mps 724 mmHg 57%
    19:00 +6°C° 0 mm 2 mps 724 mmHg 62%
    20:00 +4°C° 0 mm 2 mps 724 mmHg 67%
    21:00 +5°C° 0 mm 2 mps 723 mmHg 66%
    22:00 +4°C° 0 mm 3 mps 723 mmHg 65%
    23:00 +4°C° 0 mm 3 mps 723 mmHg 64%

    26 September, Wednesday

    Time Temperature Precipitation Wind Pressure Humidity
    00:00 +4°C° 0.1 mm 4 mps 722 mmHg 65%
    01:00 +4°C° 0.1 mm 4 mps 722 mmHg 67%
    02:00 +4°C° 0.1 mm 4 mps 721 mmHg 69%
    03:00 +4°C° 0.8 mm 4 mps 721 mmHg 74%
    04:00 +4°C° 0.8 mm 4 mps 721 mmHg 79%
    05:00 +3°C° 0.8 mm 4 mps 720 mmHg 84%
    06:00 +4°C° 0.5 mm 4 mps 721 mmHg 86%
    07:00 +4°C° 0.5 mm 4 mps 721 mmHg 88%
    08:00 +4°C° 0.5 mm 4 mps 721 mmHg 89%
    09:00 +5°C° 0.1 mm 4 mps 722 mmHg 82%
    10:00 +7°C° 0.1 mm 5 mps 722 mmHg 74%
    11:00 +8°C° 0.1 mm 5 mps 723 mmHg 66%
    12:00 +8°C° 0.1 mm 5 mps 723 mmHg 64%
    13:00 +9°C° 0.1 mm 5 mps 723 mmHg 61%
    14:00 +9°C° 0.1 mm 5 mps 723 mmHg 59%
    15:00 +9°C° 0.1 mm 5 mps 723 mmHg 62%
    16:00 +10°C° 0.1 mm 4 mps 723 mmHg 65%
    17:00 +8°C° 0.1 mm 4 mps 724 mmHg 68%
    18:00 +8°C° 0 mm 3 mps 724 mmHg 73%
    19:00 +7°C° 0 mm 2 mps 724 mmHg 78%
    20:00 +6°C° 0 mm 2 mps 725 mmHg 82%
    21:00 +6°C° 0 mm 1 mps 725 mmHg 84%
    22:00 +6°C° 0 mm 1 mps 725 mmHg 85%
    23:00 +5°C° 0 mm 1 mps 725 mmHg 86%
    Show more